User: anonymous   Login
Location: Brno
(49.2000°N, 16.6330°E)
Time: 11:35:31
(UTC+02:00)
Language:

Cosmos 332 Rocket - Orbit

View from above orbital plane
View from above orbital plane
View from above satellite
View from above satellite

Ground track
Ground track

The orbit data is extracted from the following two-line orbital elements,

1 04370U 70028B   16178.13162109  .00000034  00000-0  13460-4 0  9992
2 04370  74.0401  48.2782 0014716  55.2379 305.0169 14.59771006960024
Epoch (UTC): 26 June 2016 03:09:32
Eccentricity: 0.0014716
inclination: 74.0401°
perigee height: 683 km
apogee height: 704 km
right ascension of ascending node: 48.2782°
argument of perigee: 55.2379°
revolutions per day: 14.59771006
mean anomaly at epoch: 305.0169°
orbit number at epoch: 96002

The dashed part of the orbit path shows where the satellite is in the earth's shadow,  

DLR